Weather History for Monett, MO

Change the Weather History Date:

Friday, May 3, 2013

  Actual Average (KJLN) Record (KJLN)
Temperature  
Mean Temperature 34 °F 64 °F  
Max Temperature 37 °F 75 °F 91 °F (1952)
Min Temperature 32 °F 53 °F 31 °F (1976)
Degree Days  
Heating Degree Days 30 4  
Month to date heating degree days 12  
Since 1 July heating degree days 4015  
Cooling Degree Days 0 2  
Month to date cooling degree days 6  
Year to date cooling degree days 60  
Moisture  
Dew Point 33 °F    
Average Humidity 98    
Maximum Humidity 100    
Minimum Humidity 93    
Precipitation  
Precipitation 0.48 in 0.20 in 0.87 in (1979)
Month to date precipitation 0.58  
Year to date precipitation 12.82  
Sea Level Pressure  
Sea Level Pressure 30.06 in    
Wind  
Wind Speed 13 mph (NW)    
Max Wind Speed 18 mph    
Max Gust Speed 24 mph    
Visibility 4 miles    
Events Rain , Snow    
T = Trace of Precipitation, MM = Missing Value Source: NWS Daily Summary

Daily Weather History Graph

Daily Weather History Graph

Search for Another Location

Airport:

Trip Planner

Search our weather history database for the weather conditions in past years. The results will help you decide how hot, cold, wet, or windy it might be!

Date:

Astronomy

May. 03, 2013 Rise Set
Actual Time 6:19 AM CDT 8:06 PM CDT
Civil Twilight 5:51 AM CDT 8:35 PM CDT
Nautical Twilight 5:17 AM CDT 9:09 PM CDT
Astronomical Twilight 4:41 AM CDT 9:45 PM CDT
Moon 2:34 AM CDT (5/3) 2:10 PM CDT (5/3)
Length of Visible Light 14h 43m
Length of Day
13h 47m
Last Quarter, 37% of the Moon is Illuminated
May 3
Last Quarter
May 9
New
May 17
First Quarter
May 24
Full
May 31
Last Quarter

Hourly Weather History & Observations

Time (CDT) Temp. Windchill Dew Point Humidity Pressure Visibility Wind Dir Wind Speed Gust Speed Precip Events Conditions
12:15 AM 32.0 °F 22.1 °F 32.0 °F 100% 30.25 in 3.0 mi NNW 13.8 mph 20.7 mph 0.02 in Snow Light Snow
12:35 AM 32.0 °F 22.5 °F 32.0 °F 100% 30.23 in 2.5 mi NNW 12.7 mph 17.3 mph 0.06 in Snow Light Snow
12:55 AM 32.0 °F 22.5 °F 32.0 °F 100% 30.20 in 2.5 mi NNW 12.7 mph 20.7 mph 0.11 in Snow Light Snow
1:15 AM 32.0 °F 22.5 °F 32.0 °F 100% 30.21 in 1.2 mi NNW 12.7 mph 18.4 mph N/A Snow Light Snow
1:35 AM 32.0 °F 21.6 °F 32.0 °F 100% 30.20 in 2.5 mi NNW 15.0 mph 19.6 mph N/A Snow Light Snow
1:55 AM 32.0 °F 22.5 °F 32.0 °F 100% 30.18 in 5.0 mi NNW 12.7 mph 23.0 mph N/A Snow Light Snow
2:15 AM 32.0 °F 22.5 °F 32.0 °F 100% 30.17 in 3.0 mi NNW 12.7 mph 19.6 mph N/A Snow Light Snow
2:35 AM 32.0 °F 21.6 °F 32.0 °F 100% 30.17 in 5.0 mi NNW 15.0 mph 20.7 mph N/A Snow Light Snow
2:55 AM 32.0 °F 21.6 °F 32.0 °F 100% 30.17 in 4.0 mi NNW 15.0 mph 19.6 mph N/A Snow Light Snow
3:15 AM 32.0 °F 22.1 °F 32.0 °F 100% 30.14 in 3.0 mi NNW 13.8 mph 21.9 mph N/A Snow Light Snow
3:35 AM 32.0 °F 22.1 °F 32.0 °F 100% 30.14 in 4.0 mi NNW 13.8 mph 19.6 mph 0.01 in Snow Light Snow
3:55 AM 32.0 °F 23.0 °F 32.0 °F 100% 30.15 in 5.0 mi NNW 11.5 mph 19.6 mph 0.01 in Snow Light Snow
4:15 AM 32.0 °F 21.6 °F 32.0 °F 100% 30.15 in 5.0 mi NW 15.0 mph 20.7 mph N/A Snow Light Snow
4:35 AM 32.0 °F 22.5 °F 32.0 °F 100% 30.14 in 1.8 mi NNW 12.7 mph - N/A Snow Light Snow
4:55 AM 32.0 °F 21.6 °F 32.0 °F 100% 30.12 in 0.8 mi NNW 15.0 mph - 0.01 in Snow Snow
5:15 AM 32.0 °F 21.6 °F 32.0 °F 100% 30.13 in 0.5 mi NW 15.0 mph 19.6 mph 0.01 in Snow Snow
5:35 AM 32.0 °F 23.0 °F 32.0 °F 100% 30.14 in 2.0 mi NNW 11.5 mph - 0.02 in Snow Light Snow
5:55 AM 32.0 °F 21.6 °F 32.0 °F 100% 30.11 in 5.0 mi NNW 15.0 mph 19.6 mph 0.02 in Snow Light Snow
6:15 AM 32.0 °F 22.1 °F 32.0 °F 100% 30.09 in 10.0 mi NNW 13.8 mph 20.7 mph N/A Snow Light Snow
6:35 AM 32.0 °F 22.5 °F 32.0 °F 100% 30.10 in 3.0 mi NNW 12.7 mph 19.6 mph N/A Snow Light Snow
6:55 AM 32.0 °F 22.5 °F 32.0 °F 100% 30.10 in 4.0 mi NNW 12.7 mph - N/A Snow Light Snow
7:15 AM 32.0 °F 22.1 °F 32.0 °F 100% 30.10 in 5.0 mi NW 13.8 mph - N/A Snow Light Snow
7:35 AM 32.0 °F 22.1 °F 32.0 °F 100% 30.10 in 3.0 mi NNW 13.8 mph 20.7 mph N/A Snow Light Snow
7:55 AM 32.0 °F 22.1 °F 32.0 °F 100% 30.10 in 4.0 mi NW 13.8 mph 19.6 mph N/A Snow Light Snow
8:15 AM 32.0 °F 22.5 °F 32.0 °F 100% 30.09 in 3.0 mi NNW 12.7 mph 18.4 mph N/A Snow Light Snow
8:35 AM 32.0 °F 22.1 °F 32.0 °F 100% 30.08 in 3.0 mi NNW 13.8 mph - N/A Snow Light Snow
8:55 AM 32.0 °F 22.1 °F 32.0 °F 100% 30.09 in 2.5 mi NNW 13.8 mph 19.6 mph N/A Snow Light Snow
9:15 AM 32.0 °F 21.6 °F 32.0 °F 100% 30.08 in 2.5 mi NNW 15.0 mph - N/A Snow Light Snow
9:35 AM 32.0 °F 22.5 °F 32.0 °F 100% 30.08 in 2.0 mi NW 12.7 mph - N/A Snow Light Snow
9:55 AM 32.0 °F 22.5 °F 32.0 °F 100% 30.07 in 2.0 mi NW 12.7 mph - N/A   Overcast
10:15 AM 33.8 °F 24.8 °F 32.0 °F 93% 30.07 in 3.0 mi NNW 12.7 mph 16.1 mph N/A Snow Light Snow
10:35 AM 33.8 °F 27.0 °F 32.0 °F 93% 30.08 in 2.5 mi NW 8.1 mph - N/A Snow Light Snow
10:55 AM 33.8 °F 25.3 °F 32.0 °F 93% 30.08 in 3.0 mi NW 11.5 mph - N/A Snow Light Snow
11:15 AM 33.8 °F 24.8 °F 33.8 °F 100% 30.07 in 5.0 mi NW 12.7 mph - N/A Rain Light Rain
11:35 AM 33.8 °F 25.8 °F 33.8 °F 100% 30.07 in 5.0 mi NW 10.4 mph 17.3 mph N/A Rain Light Rain
11:55 AM 33.8 °F 24.3 °F 33.8 °F 100% 30.06 in 4.0 mi NNW 13.8 mph 19.6 mph N/A Rain Rain
12:15 PM 35.6 °F 26.6 °F 33.8 °F 93% 30.05 in 4.0 mi NW 13.8 mph - 0.01 in Rain Light Rain
12:35 PM 35.6 °F 27.5 °F 35.6 °F 100% 30.05 in 4.0 mi NW 11.5 mph 17.3 mph 0.01 in Rain Rain
12:55 PM 35.6 °F 26.6 °F 33.8 °F 93% 30.04 in 4.0 mi NW 13.8 mph 21.9 mph 0.01 in Rain Light Rain
1:15 PM 35.6 °F 27.1 °F 35.6 °F 100% 30.04 in 5.0 mi NW 12.7 mph - N/A   Drizzle
1:35 PM 35.6 °F 27.1 °F 35.6 °F 100% 30.03 in 5.0 mi NW 12.7 mph 20.7 mph N/A   Drizzle
1:55 PM 35.6 °F 27.5 °F 35.6 °F 100% 30.03 in 4.0 mi WNW 11.5 mph 19.6 mph N/A   Drizzle
2:15 PM 35.6 °F 27.1 °F 35.6 °F 100% 30.03 in 4.0 mi NW 12.7 mph 17.3 mph N/A Rain Light Rain
2:35 PM 35.6 °F 26.6 °F 35.6 °F 100% 30.02 in 3.0 mi WNW 13.8 mph - 0.01 in Rain Rain
2:55 PM 35.6 °F 26.2 °F 35.6 °F 100% 30.02 in 5.0 mi NW 15.0 mph 19.6 mph 0.02 in Rain Rain
3:15 PM 37.4 °F 28.5 °F 35.6 °F 93% 30.02 in 5.0 mi WNW 15.0 mph 19.6 mph N/A   Drizzle
3:35 PM 37.4 °F 29.3 °F 35.6 °F 93% 30.01 in 5.0 mi WNW 12.7 mph 18.4 mph N/A Rain Light Rain
3:55 PM 37.4 °F 28.2 °F 35.6 °F 93% 30.00 in 7.0 mi WNW 16.1 mph 21.9 mph N/A Rain Light Rain
4:15 PM 37.4 °F 27.5 °F 35.6 °F 93% 30.00 in 7.0 mi WNW 18.4 mph 24.2 mph N/A Rain Light Rain
4:35 PM 35.6 °F 26.6 °F 35.6 °F 100% 29.99 in 5.0 mi NW 13.8 mph 23.0 mph 0.01 in Rain Light Rain
4:55 PM 37.4 °F 28.2 °F 35.6 °F 93% 29.99 in 5.0 mi NW 16.1 mph 19.6 mph 0.02 in Rain Light Rain
5:15 PM 37.4 °F 28.2 °F 35.6 °F 93% 29.98 in 7.0 mi NW 16.1 mph 19.6 mph N/A Rain Light Rain
5:35 PM 35.6 °F 26.6 °F 35.6 °F 100% 29.98 in 5.0 mi WNW 13.8 mph 19.6 mph 0.02 in Rain Light Rain
5:55 PM 35.6 °F 26.2 °F 35.6 °F 100% 29.98 in 5.0 mi WNW 15.0 mph 19.6 mph 0.03 in Rain Light Rain
6:15 PM 35.6 °F 28.6 °F 35.6 °F 100% 29.98 in 5.0 mi WNW 9.2 mph - 0.01 in Rain Light Rain
6:35 PM 35.6 °F 26.2 °F 33.8 °F 93% 29.98 in 3.0 mi WNW 15.0 mph 20.7 mph 0.04 in Rain Rain
6:55 PM 35.6 °F 27.1 °F 33.8 °F 93% 29.98 in 5.0 mi WNW 12.7 mph 17.3 mph 0.06 in Rain Light Rain
7:15 PM 35.6 °F 27.1 °F 33.8 °F 93% 29.97 in 7.0 mi WNW 12.7 mph 18.4 mph 0.01 in Rain Light Rain
7:35 PM 35.6 °F 27.1 °F 33.8 °F 93% 29.97 in 7.0 mi WNW 12.7 mph 18.4 mph 0.01 in Rain Light Rain
7:55 PM 35.6 °F 26.6 °F 33.8 °F 93% 29.97 in 7.0 mi WNW 13.8 mph 18.4 mph 0.01 in Rain Rain
8:15 PM 35.6 °F 27.5 °F 33.8 °F 93% 29.97 in 10.0 mi WNW 11.5 mph - N/A   Drizzle
8:35 PM 35.6 °F 28.0 °F 33.8 °F 93% 29.97 in 7.0 mi WNW 10.4 mph - N/A   Drizzle
8:55 PM 33.8 °F 25.8 °F 33.8 °F 100% 29.97 in 4.0 mi NW 10.4 mph 16.1 mph 0.02 in Rain Rain
9:15 PM 33.8 °F 27.0 °F 33.8 °F 100% 29.96 in 7.0 mi WNW 8.1 mph - 0.01 in Rain Light Rain
9:35 PM 33.8 °F 26.4 °F 33.8 °F 100% 29.96 in 5.0 mi WNW 9.2 mph - 0.02 in Rain Light Rain
9:55 PM 33.8 °F 24.8 °F 33.8 °F 100% 29.96 in 5.0 mi West 12.7 mph 17.3 mph 0.03 in Rain Rain
10:15 PM 32.0 °F 24.2 °F 32.0 °F 100% 29.95 in 2.0 mi West 9.2 mph - 0.03 in Snow Light Snow
10:35 PM 32.0 °F 27.5 °F 32.0 °F 100% 29.94 in 1.2 mi West 4.6 mph - 0.06 in Snow Light Snow
10:55 PM 32.0 °F 28.7 °F 32.0 °F 100% 29.93 in 1.5 mi WNW 3.5 mph - 0.07 in Snow Light Snow
11:15 PM 32.0 °F - 32.0 °F 100% 29.93 in 1.0 mi Calm Calm - 0.02 in Snow Snow
11:35 PM 32.0 °F - 32.0 °F 100% 29.92 in 1.0 mi Calm Calm - 0.05 in Snow Light Snow
11:55 PM 32.0 °F - 32.0 °F 100% 29.91 in 1.0 mi Calm Calm - 0.06 in Snow Snow